Location: Hains Lake
(37.8540°N, 99.8578°W)
Time: 21:18:37
(UTC+00:00)

deb Explorer IX - Pass Details

Date: 24 April 2021
Orbit: 541 x 1098 km, 38.8° (Epoch: 13 May)

Event Time Altitude Azimuth Distance (km) Brightness Sun altitude
Rises 11:02:39 0° 227° (SW) 2,714 - -9.9°
Exits shadow 11:04:58 10° 218° (SW) 1,831 ? -9.4°
Reaches altitude 10° 11:05:04 10° 217° (SW) 1,798 ? -9.4°
Maximum altitude 11:08:42 32° 153° (SSE) 934 ? -8.8°
Drops below altitude 10° 11:12:23 10° 89° (E) 1,826 ? -8.1°
Sets 11:14:51 0° 79° (E) 2,764 ? -7.7°
